Time,TemperatureF,DewpointF,PressureIn,WindDirection,WindDirectionDegrees,WindSpeedMPH,WindSpeedGustMPH,Humidity,HourlyPrecipIn,Conditions,Clouds,dailyrainin,SoftwareType,DateUTC
2013-03-08 00:00:00,32.1,24.8,29.97,WSW,258,5.0,24.0,74,0.00,,---,0.00,VWS V14.01,2013-03-08 05:00:00,
2013-03-08 00:02:00,32.1,24.8,29.97,West,271,11.0,24.0,74,0.00,,---,0.00,VWS V14.01,2013-03-08 05:02:00,
2013-03-08 00:07:00,32.1,24.8,29.97,West,272,10.0,18.0,74,0.00,,---,0.00,VWS V14.01,2013-03-08 05:07:00,
2013-03-08 00:12:00,32.2,24.5,29.97,West,261,10.0,19.0,73,0.00,,---,0.00,VWS V14.01,2013-03-08 05:12:00,
2013-03-08 00:17:00,32.1,24.8,29.97,West,271,15.0,19.0,74,0.00,,---,0.00,VWS V14.01,2013-03-08 05:17:00,
2013-03-08 00:22:00,32.1,24.4,29.97,WSW,257,6.0,21.0,73,0.00,,---,0.00,VWS V14.01,2013-03-08 05:22:00,
2013-03-08 00:27:00,32.1,24.4,29.97,WSW,238,15.0,21.0,73,0.00,,---,0.00,VWS V14.01,2013-03-08 05:27:00,
2013-03-08 00:30:00,32.0,24.7,29.97,West,279,5.0,21.0,74,0.00,,---,0.00,VWS V14.01,2013-03-08 05:30:00,
2013-03-08 00:32:00,32.0,24.7,29.97,West,270,13.0,21.0,74,0.00,,---,0.00,VWS V14.01,2013-03-08 05:32:00,
2013-03-08 00:37:00,32.0,24.7,29.97,West,275,4.0,15.0,74,0.00,,---,0.00,VWS V14.01,2013-03-08 05:37:00,
2013-03-08 00:41:00,31.8,25.1,29.97,WNW,303,8.0,30.0,76,0.00,,---,0.00,VWS V14.01,2013-03-08 05:41:00,
2013-03-08 00:46:00,31.5,25.1,29.97,SW,224,10.0,30.0,77,0.00,,---,0.00,VWS V14.01,2013-03-08 05:46:00,
2013-03-08 00:51:00,31.3,25.6,29.97,West,260,16.0,30.0,79,0.00,,---,0.00,VWS V14.01,2013-03-08 05:51:00,
2013-03-08 00:56:00,31.1,25.4,29.97,West,270,11.0,30.0,79,0.00,,---,0.00,VWS V14.01,2013-03-08 05:56:00,
2013-03-08 01:00:00,30.9,25.5,29.97,West,261,7.0,30.0,80,0.00,,---,0.00,VWS V14.01,2013-03-08 06:00:00,
2013-03-08 01:01:00,30.9,25.5,29.97,WNW,286,3.0,30.0,80,0.00,,---,0.00,VWS V14.01,2013-03-08 06:01:00,
2013-03-08 01:06:00,30.8,25.7,29.97,NW,311,9.0,15.0,81,0.00,,---,0.00,VWS V14.01,2013-03-08 06:06:00,
2013-03-08 01:11:00,30.6,25.8,29.97,WSW,250,10.0,19.0,82,0.00,,---,0.00,VWS V14.01,2013-03-08 06:11:00,
2013-03-08 01:16:00,30.4,25.9,29.97,West,269,7.0,19.0,83,0.00,,---,0.00,VWS V14.01,2013-03-08 06:16:00,
2013-03-08 01:21:00,30.1,25.9,29.97,WSW,244,15.0,19.0,84,0.00,,---,0.00,VWS V14.01,2013-03-08 06:21:00,
2013-03-08 01:26:00,29.9,26.2,29.97,West,281,13.0,22.0,86,0.00,,---,0.00,VWS V14.01,2013-03-08 06:26:00,
2013-03-08 01:30:00,29.6,26.2,29.97,WSW,246,3.0,22.0,87,0.00,,---,0.00,VWS V14.01,2013-03-08 06:30:00,
2013-03-08 01:31:00,29.7,26.3,29.97,West,263,15.0,22.0,87,0.00,,---,0.00,VWS V14.01,2013-03-08 06:31:00,
2013-03-08 01:36:00,29.6,26.2,29.97,WNW,292,3.0,13.0,87,0.00,,---,0.00,VWS V14.01,2013-03-08 06:36:00,
2013-03-08 01:41:00,29.4,26.3,29.97,WSW,253,7.0,13.0,88,0.00,,---,0.00,VWS V14.01,2013-03-08 06:41:00,
2013-03-08 01:46:00,29.4,26.6,29.97,WSW,237,9.0,19.0,89,0.00,,---,0.00,VWS V14.01,2013-03-08 06:46:00,
2013-03-08 01:51:00,29.3,26.5,29.96,WSW,255,7.0,19.0,89,0.00,,---,0.00,VWS V14.01,2013-03-08 06:51:00,
2013-03-08 01:56:00,29.2,26.6,29.96,West,278,16.0,19.0,90,0.00,,---,0.00,VWS V14.01,2013-03-08 06:56:00,
2013-03-08 02:00:00,29.1,26.5,29.95,WSW,257,14.0,23.0,90,0.00,,---,0.00,VWS V14.01,2013-03-08 07:00:00,
2013-03-08 02:01:00,29.2,26.6,29.95,West,271,5.0,23.0,90,0.00,,---,0.00,VWS V14.01,2013-03-08 07:01:00,
2013-03-08 02:06:00,29.1,26.5,29.95,WSW,253,14.0,20.0,90,0.00,,---,0.00,VWS V14.01,2013-03-08 07:06:00,
2013-03-08 02:11:00,29.1,26.5,29.95,West,267,10.0,23.0,90,0.00,,---,0.00,VWS V14.01,2013-03-08 07:11:00,
2013-03-08 02:16:00,29.1,26.5,29.96,SW,227,9.0,23.0,90,0.00,,---,0.00,VWS V14.01,2013-03-08 07:16:00,
2013-03-08 02:21:00,29.0,26.4,29.96,NNW,331,6.0,23.0,90,0.00,,---,0.00,VWS V14.01,2013-03-08 07:21:00,
2013-03-08 02:26:00,29.1,26.5,29.96,West,261,11.0,23.0,90,0.00,,---,0.00,VWS V14.01,2013-03-08 07:26:00,
2013-03-08 02:30:00,29.1,26.5,29.96,West,267,18.0,23.0,90,0.00,,---,0.00,VWS V14.01,2013-03-08 07:30:00,
2013-03-08 02:31:00,29.1,26.5,29.96,West,273,9.0,23.0,90,0.00,,---,0.00,VWS V14.01,2013-03-08 07:31:00,
2013-03-08 02:36:00,29.2,26.6,29.96,WSW,246,6.0,19.0,90,0.00,,---,0.00,VWS V14.01,2013-03-08 07:36:00,
2013-03-08 02:41:00,29.2,26.6,29.95,West,259,5.0,19.0,90,0.00,,---,0.00,VWS V14.01,2013-03-08 07:41:00,
2013-03-08 02:46:00,29.3,26.5,29.95,WSW,255,9.0,19.0,89,0.00,,---,0.00,VWS V14.01,2013-03-08 07:46:00,
2013-03-08 02:51:00,29.5,26.7,29.95,West,281,13.0,19.0,89,0.00,,---,0.00,VWS V14.01,2013-03-08 07:51:00,
2013-03-08 02:56:00,29.9,26.5,29.95,WSW,246,8.0,24.0,87,0.00,,---,0.00,VWS V14.01,2013-03-08 07:56:00,
2013-03-08 03:00:00,30.3,26.3,29.94,WNW,282,8.0,25.0,85,0.00,,---,0.00,VWS V14.01,2013-03-08 08:00:00,
2013-03-08 03:01:00,30.1,26.1,29.94,West,265,12.0,25.0,85,0.00,,---,0.00,VWS V14.01,2013-03-08 08:01:00,
2013-03-08 03:06:00,30.3,26.1,29.94,WSW,255,13.0,15.0,84,0.00,,---,0.00,VWS V14.01,2013-03-08 08:06:00,
2013-03-08 03:11:00,30.5,26.0,29.94,WNW,286,7.0,27.0,83,0.00,,---,0.00,VWS V14.01,2013-03-08 08:11:00,
2013-03-08 03:16:00,30.6,25.8,29.94,West,263,16.0,27.0,82,0.00,,---,0.00,VWS V14.01,2013-03-08 08:16:00,
2013-03-08 03:21:00,30.6,25.5,29.95,WSW,246,13.0,27.0,81,0.00,,---,0.00,VWS V14.01,2013-03-08 08:21:00,
2013-03-08 03:26:00,30.6,25.2,29.95,West,273,6.0,27.0,80,0.00,,---,0.00,VWS V14.01,2013-03-08 08:26:00,
2013-03-08 03:30:00,30.6,25.2,29.95,West,264,6.0,27.0,80,0.00,,---,0.00,VWS V14.01,2013-03-08 08:30:00,
2013-03-08 03:31:00,30.7,25.3,29.95,West,275,13.0,27.0,80,0.00,,---,0.00,VWS V14.01,2013-03-08 08:31:00,
2013-03-08 03:36:00,30.7,25.0,29.95,West,279,5.0,17.0,79,0.00,,---,0.00,VWS V14.01,2013-03-08 08:36:00,
2013-03-08 03:41:00,30.6,24.9,29.95,WNW,284,15.0,19.0,79,0.00,,---,0.00,VWS V14.01,2013-03-08 08:41:00,
2013-03-08 03:46:00,30.7,25.0,29.95,West,270,12.0,22.0,79,0.00,,---,0.00,VWS V14.01,2013-03-08 08:46:00,
2013-03-08 03:51:00,30.6,24.6,29.95,WSW,244,11.0,22.0,78,0.00,,---,0.00,VWS V14.01,2013-03-08 08:51:00,
2013-03-08 03:56:00,30.7,24.7,29.95,West,277,3.0,22.0,78,0.00,,---,0.00,VWS V14.01,2013-03-08 08:56:00,
2013-03-08 04:00:00,30.7,24.4,29.95,West,267,7.0,22.0,77,0.00,,---,0.00,VWS V14.01,2013-03-08 09:00:00,
2013-03-08 04:01:00,30.6,24.6,29.95,West,279,17.0,22.0,78,0.00,,---,0.00,VWS V14.01,2013-03-08 09:01:00,
2013-03-08 04:06:00,30.7,24.7,29.95,SW,235,9.0,17.0,78,0.00,,---,0.00,VWS V14.01,2013-03-08 09:06:00,
2013-03-08 04:11:00,30.7,24.4,29.95,West,276,13.0,21.0,77,0.00,,---,0.00,VWS V14.01,2013-03-08 09:11:00,
2013-03-08 04:16:00,30.7,24.4,29.95,WSW,256,11.0,21.0,77,0.00,,---,0.00,VWS V14.01,2013-03-08 09:16:00,
2013-03-08 04:21:00,30.7,24.4,29.95,West,281,6.0,21.0,77,0.00,,---,0.00,VWS V14.01,2013-03-08 09:21:00,
2013-03-08 04:26:00,30.6,24.6,29.95,WSW,253,14.0,21.0,78,0.00,,---,0.00,VWS V14.01,2013-03-08 09:26:00,
2013-03-08 04:30:00,30.6,24.3,29.95,West,277,17.0,21.0,77,0.00,,---,0.00,VWS V14.01,2013-03-08 09:30:00,
2013-03-08 04:31:00,30.7,24.4,29.95,WSW,250,9.0,21.0,77,0.00,,---,0.00,VWS V14.01,2013-03-08 09:31:00,
2013-03-08 04:36:00,30.6,24.3,29.95,WSW,246,15.0,22.0,77,0.00,,---,0.00,VWS V14.01,2013-03-08 09:36:00,
2013-03-08 04:41:00,30.6,24.3,29.95,WSW,252,8.0,22.0,77,0.00,,---,0.00,VWS V14.01,2013-03-08 09:41:00,
2013-03-08 04:46:00,30.6,24.3,29.95,West,261,15.0,22.0,77,0.00,,---,0.00,VWS V14.01,2013-03-08 09:46:00,
2013-03-08 04:51:00,30.6,24.3,29.95,WSW,248,14.0,25.0,77,0.00,,---,0.00,VWS V14.01,2013-03-08 09:51:00,
2013-03-08 04:56:00,30.6,24.3,29.95,West,266,19.0,25.0,77,0.00,,---,0.00,VWS V14.01,2013-03-08 09:56:00,
2013-03-08 05:00:00,30.5,24.2,29.95,West,269,11.0,25.0,77,0.00,,---,0.00,VWS V14.01,2013-03-08 10:00:00,
2013-03-08 05:01:00,30.5,24.2,29.95,West,261,5.0,25.0,77,0.00,,---,0.00,VWS V14.01,2013-03-08 10:01:00,
2013-03-08 05:06:00,30.5,24.2,29.95,WSW,254,12.0,17.0,77,0.00,,---,0.00,VWS V14.01,2013-03-08 10:06:00,
2013-03-08 05:11:00,30.4,24.1,29.95,WSW,254,15.0,20.0,77,0.00,,---,0.00,VWS V14.01,2013-03-08 10:11:00,
2013-03-08 05:16:00,30.4,24.1,29.95,West,265,21.0,26.0,77,0.00,,---,0.00,VWS V14.01,2013-03-08 10:16:00,
2013-03-08 05:21:00,30.4,24.1,29.95,NW,305,11.0,26.0,77,0.00,,---,0.00,VWS V14.01,2013-03-08 10:21:00,
2013-03-08 05:26:00,30.3,24.0,29.95,West,266,11.0,26.0,77,0.00,,---,0.00,VWS V14.01,2013-03-08 10:26:00,
2013-03-08 05:30:00,30.2,24.2,29.95,WNW,290,0.0,26.0,78,0.00,,---,0.00,VWS V14.01,2013-03-08 10:30:00,
2013-03-08 05:31:00,30.2,24.2,29.95,WSW,242,11.0,26.0,78,0.00,,---,0.00,VWS V14.01,2013-03-08 10:31:00,
2013-03-08 05:36:00,30.1,24.1,29.95,WSW,253,10.0,18.0,78,0.00,,---,0.00,VWS V14.01,2013-03-08 10:36:00,
2013-03-08 05:41:00,30.1,24.1,29.95,West,259,15.0,18.0,78,0.00,,---,0.00,VWS V14.01,2013-03-08 10:41:00,
2013-03-08 05:46:00,30.1,24.1,29.95,WSW,252,18.0,22.0,78,0.00,,---,0.00,VWS V14.01,2013-03-08 10:46:00,
2013-03-08 05:51:00,30.0,24.0,29.95,WSW,238,12.0,25.0,78,0.00,,---,0.00,VWS V14.01,2013-03-08 10:51:00,
2013-03-08 05:56:00,30.0,24.0,29.96,West,281,7.0,25.0,78,0.00,,---,0.00,VWS V14.01,2013-03-08 10:56:00,
2013-03-08 06:00:00,29.9,23.9,29.95,West,265,13.0,25.0,78,0.00,,---,0.00,VWS V14.01,2013-03-08 11:00:00,
2013-03-08 06:01:00,30.0,24.0,29.96,WSW,255,10.0,25.0,78,0.00,,---,0.00,VWS V14.01,2013-03-08 11:01:00,
2013-03-08 06:06:00,29.9,23.9,29.96,WSW,253,14.0,21.0,78,0.00,,---,0.00,VWS V14.01,2013-03-08 11:06:00,
2013-03-08 06:11:00,29.9,23.9,29.96,WSW,238,7.0,21.0,78,0.00,,---,0.00,VWS V14.01,2013-03-08 11:11:00,
2013-03-08 06:16:00,29.8,23.5,29.96,WSW,254,7.0,23.0,77,0.00,,---,0.00,VWS V14.01,2013-03-08 11:16:00,
2013-03-08 06:21:00,29.9,23.9,29.95,NW,309,6.0,23.0,78,0.00,,---,0.00,VWS V14.01,2013-03-08 11:21:00,
2013-03-08 06:26:00,29.8,23.5,29.96,SW,232,8.0,23.0,77,0.00,,---,0.00,VWS V14.01,2013-03-08 11:26:00,
2013-03-08 06:30:00,29.8,23.8,29.96,West,264,10.0,23.0,78,0.00,,---,0.00,VWS V14.01,2013-03-08 11:30:00,
2013-03-08 06:31:00,29.9,23.6,29.96,West,264,10.0,23.0,77,0.00,,---,0.00,VWS V14.01,2013-03-08 11:31:00,
2013-03-08 06:36:00,29.9,23.6,29.96,WSW,237,7.0,15.0,77,0.00,,---,0.00,VWS V14.01,2013-03-08 11:36:00,
2013-03-08 06:41:00,29.9,23.6,29.96,West,259,13.0,22.0,77,0.00,,---,0.00,VWS V14.01,2013-03-08 11:41:00,
2013-03-08 06:46:00,29.9,23.6,29.96,WSW,250,9.0,22.0,77,0.00,,---,0.00,VWS V14.01,2013-03-08 11:46:00,
2013-03-08 06:51:00,30.0,23.7,29.96,West,274,10.0,22.0,77,0.00,,---,0.00,VWS V14.01,2013-03-08 11:51:00,
2013-03-08 06:56:00,30.0,23.7,29.97,West,260,11.0,23.0,77,0.00,,---,0.00,VWS V14.01,2013-03-08 11:56:00,
2013-03-08 07:00:00,30.1,23.8,29.97,West,261,18.0,23.0,77,0.00,,---,0.00,VWS V14.01,2013-03-08 12:00:00,
2013-03-08 07:01:00,30.0,23.7,29.97,SW,225,16.0,23.0,77,0.00,,---,0.00,VWS V14.01,2013-03-08 12:01:00,
2013-03-08 07:06:00,30.1,23.5,29.96,West,275,12.0,21.0,76,0.00,,---,0.00,VWS V14.01,2013-03-08 12:06:00,
2013-03-08 07:11:00,30.1,23.5,29.96,WSW,257,16.0,26.0,76,0.00,,---,0.00,VWS V14.01,2013-03-08 12:11:00,
2013-03-08 07:16:00,30.2,23.6,29.97,West,271,21.0,26.0,76,0.00,,---,0.00,VWS V14.01,2013-03-08 12:16:00,
2013-03-08 07:21:00,30.4,23.8,29.97,WNW,286,9.0,26.0,76,0.00,,---,0.00,VWS V14.01,2013-03-08 12:21:00,
2013-03-08 07:26:00,30.6,23.6,29.97,WSW,256,15.0,26.0,75,0.00,,---,0.00,VWS V14.01,2013-03-08 12:26:00,
2013-03-08 07:30:00,31.1,23.8,29.96,West,259,8.0,26.0,74,0.00,,---,0.00,VWS V14.01,2013-03-08 12:30:00,
2013-03-08 07:31:00,31.0,24.0,29.97,WSW,250,15.0,26.0,75,0.00,,---,0.00,VWS V14.01,2013-03-08 12:31:00,
2013-03-08 07:36:00,31.3,24.0,29.96,WSW,238,20.0,21.0,74,0.00,,---,0.00,VWS V14.01,2013-03-08 12:36:00,
2013-03-08 07:41:00,31.5,23.9,29.96,West,265,8.0,24.0,73,0.00,,---,0.00,VWS V14.01,2013-03-08 12:41:00,
2013-03-08 07:46:00,31.6,24.0,29.96,WNW,286,11.0,24.0,73,0.00,,---,0.00,VWS V14.01,2013-03-08 12:46:00,
2013-03-08 07:51:00,31.6,24.0,29.96,WNW,283,13.0,24.0,73,0.00,,---,0.00,VWS V14.01,2013-03-08 12:51:00,
2013-03-08 07:56:00,31.6,23.6,29.96,WSW,248,14.0,25.0,72,0.00,,---,0.00,VWS V14.01,2013-03-08 12:56:00,
2013-03-08 08:00:00,31.5,23.5,29.96,West,263,17.0,25.0,72,0.00,,---,0.00,VWS V14.01,2013-03-08 13:00:00,
2013-03-08 08:01:00,31.6,23.6,29.96,West,273,12.0,25.0,72,0.00,,---,0.00,VWS V14.01,2013-03-08 13:01:00,
2013-03-08 08:06:00,31.6,23.6,29.96,West,271,11.0,17.0,72,0.00,,---,0.00,VWS V14.01,2013-03-08 13:06:00,
2013-03-08 08:11:00,31.7,23.7,29.96,West,269,11.0,23.0,72,0.00,,---,0.00,VWS V14.01,2013-03-08 13:11:00,
2013-03-08 08:16:00,31.8,23.8,29.96,WSW,242,10.0,23.0,72,0.00,,---,0.00,VWS V14.01,2013-03-08 13:16:00,
2013-03-08 08:21:00,31.8,23.5,29.96,West,261,16.0,24.0,71,0.00,,---,0.00,VWS V14.01,2013-03-08 13:21:00,
2013-03-08 08:26:00,32.0,23.7,29.96,WNW,295,17.0,24.0,71,0.00,,---,0.00,VWS V14.01,2013-03-08 13:26:00,
2013-03-08 08:30:00,32.3,23.6,29.96,WSW,243,12.0,31.0,70,0.00,,---,0.00,VWS V14.01,2013-03-08 13:30:00,
2013-03-08 08:31:00,32.2,23.9,29.95,West,259,11.0,31.0,71,0.00,,---,0.00,VWS V14.01,2013-03-08 13:31:00,
2013-03-08 08:36:00,32.3,23.6,29.96,West,278,7.0,14.0,70,0.00,,---,0.00,VWS V14.01,2013-03-08 13:36:00,
2013-03-08 08:41:00,32.4,23.7,29.96,WNW,284,8.0,28.0,70,0.00,,---,0.00,VWS V14.01,2013-03-08 13:41:00,
2013-03-08 08:46:00,32.4,23.4,29.96,WSW,257,15.0,28.0,69,0.00,,---,0.00,VWS V14.01,2013-03-08 13:46:00,
2013-03-08 08:51:00,32.5,23.5,29.96,WSW,238,13.0,28.0,69,0.00,,---,0.00,VWS V14.01,2013-03-08 13:51:00,
2013-03-08 08:56:00,32.7,23.7,29.96,WNW,294,12.0,28.0,69,0.00,,---,0.00,VWS V14.01,2013-03-08 13:56:00,
2013-03-08 09:00:00,32.8,23.8,29.96,West,265,19.0,28.0,69,0.00,,---,0.00,VWS V14.01,2013-03-08 14:00:00,
2013-03-08 09:01:00,32.7,23.7,29.96,WNW,284,7.0,28.0,69,0.00,,---,0.00,VWS V14.01,2013-03-08 14:01:00,
2013-03-08 09:06:00,32.8,23.4,29.96,West,277,9.0,23.0,68,0.00,,---,0.00,VWS V14.01,2013-03-08 14:06:00,
2013-03-08 09:11:00,33.0,23.6,29.96,WSW,252,12.0,23.0,68,0.00,,---,0.00,VWS V14.01,2013-03-08 14:11:00,
2013-03-08 09:16:00,33.2,23.5,29.96,WSW,257,11.0,23.0,67,0.00,,---,0.00,VWS V14.01,2013-03-08 14:16:00,
2013-03-08 09:21:00,33.4,23.6,29.97,West,271,12.0,23.0,67,0.00,,---,0.00,VWS V14.01,2013-03-08 14:21:00,
2013-03-08 09:26:00,33.7,23.6,29.97,West,273,6.0,23.0,66,0.00,,---,0.00,VWS V14.01,2013-03-08 14:26:00,
2013-03-08 09:30:00,34.4,23.9,29.97,West,264,16.0,24.0,65,0.00,,---,0.00,VWS V14.01,2013-03-08 14:30:00,
2013-03-08 09:31:00,34.1,24.0,29.97,WSW,258,18.0,24.0,66,0.00,,---,0.00,VWS V14.01,2013-03-08 14:31:00,
2013-03-08 09:36:00,34.5,24.0,29.97,WSW,257,7.0,17.0,65,0.00,,---,0.00,VWS V14.01,2013-03-08 14:36:00,
2013-03-08 09:41:00,34.8,23.9,29.97,SW,225,13.0,19.0,64,0.00,,---,0.00,VWS V14.01,2013-03-08 14:41:00,
2013-03-08 09:46:00,35.3,24.4,29.96,SW,226,5.0,19.0,64,0.00,,---,0.00,VWS V14.01,2013-03-08 14:46:00,
2013-03-08 09:51:00,35.7,24.4,29.96,West,273,8.0,22.0,63,0.00,,---,0.00,VWS V14.01,2013-03-08 14:51:00,
2013-03-08 09:56:00,35.6,23.9,29.96,WSW,245,11.0,22.0,62,0.00,,---,0.00,VWS V14.01,2013-03-08 14:56:00,
2013-03-08 10:00:00,35.8,24.1,29.96,WNW,291,7.0,22.0,62,0.00,,---,0.00,VWS V14.01,2013-03-08 15:00:00,
2013-03-08 10:01:00,35.8,24.1,29.96,NW,316,11.0,22.0,62,0.00,,---,0.00,VWS V14.01,2013-03-08 15:01:00,
2013-03-08 10:06:00,35.9,24.2,29.97,WSW,237,12.0,18.0,62,0.00,,---,0.00,VWS V14.01,2013-03-08 15:06:00,
2013-03-08 10:11:00,35.8,23.7,29.97,SW,224,12.0,20.0,61,0.00,,---,0.00,VWS V14.01,2013-03-08 15:11:00,
2013-03-08 10:16:00,36.1,24.0,29.96,WSW,255,14.0,23.0,61,0.00,,---,0.00,VWS V14.01,2013-03-08 15:16:00,
2013-03-08 10:21:00,36.5,24.3,29.97,SW,221,12.0,23.0,61,0.00,,---,0.00,VWS V14.01,2013-03-08 15:21:00,
2013-03-08 10:26:00,36.8,24.2,29.96,WSW,258,17.0,27.0,60,0.00,,---,0.00,VWS V14.01,2013-03-08 15:26:00,
2013-03-08 10:30:00,37.2,24.2,29.96,WSW,244,9.0,27.0,59,0.00,,---,0.00,VWS V14.01,2013-03-08 15:30:00,
2013-03-08 10:31:00,37.0,24.0,29.96,SSW,209,18.0,27.0,59,0.00,,---,0.00,VWS V14.01,2013-03-08 15:31:00,
2013-03-08 10:36:00,37.6,24.6,29.96,West,264,14.0,21.0,59,0.00,,---,0.00,VWS V14.01,2013-03-08 15:36:00,
2013-03-08 10:41:00,37.9,24.9,29.96,WSW,257,11.0,22.0,59,0.00,,---,0.00,VWS V14.01,2013-03-08 15:41:00,
2013-03-08 10:46:00,38.2,24.3,29.96,SW,236,10.0,23.0,57,0.00,,---,0.00,VWS V14.01,2013-03-08 15:46:00,
2013-03-08 10:51:00,38.2,24.3,29.96,West,271,17.0,23.0,57,0.00,,---,0.00,VWS V14.01,2013-03-08 15:51:00,
2013-03-08 10:56:00,38.4,24.9,29.96,SSW,211,8.0,23.0,58,0.00,,---,0.00,VWS V14.01,2013-03-08 15:56:00,
2013-03-08 11:00:00,38.8,24.0,29.96,WSW,254,7.0,23.0,55,0.00,,---,0.00,VWS V14.01,2013-03-08 16:00:00,
2013-03-08 11:01:00,38.6,24.7,29.96,West,264,20.0,23.0,57,0.00,,---,0.00,VWS V14.01,2013-03-08 16:01:00,
2013-03-08 11:06:00,38.9,24.6,29.96,WSW,257,23.0,23.0,56,0.00,,---,0.00,VWS V14.01,2013-03-08 16:06:00,
2013-03-08 11:11:00,38.9,24.1,29.96,WSW,245,7.0,25.0,55,0.00,,---,0.00,VWS V14.01,2013-03-08 16:11:00,
2013-03-08 11:16:00,38.9,24.1,29.96,West,269,15.0,25.0,55,0.00,,---,0.00,VWS V14.01,2013-03-08 16:16:00,
2013-03-08 11:21:00,40.0,24.3,29.96,WSW,252,9.0,25.0,53,0.00,,---,0.00,VWS V14.01,2013-03-08 16:21:00,
2013-03-08 11:26:00,40.4,24.6,29.96,SW,226,17.0,25.0,53,0.00,,---,0.00,VWS V14.01,2013-03-08 16:26:00,
2013-03-08 11:30:00,40.8,24.1,29.96,WNW,294,8.0,25.0,51,0.00,,---,0.00,VWS V14.01,2013-03-08 16:30:00,
2013-03-08 11:31:00,40.8,24.5,29.97,WSW,258,17.0,25.0,52,0.00,,---,0.00,VWS V14.01,2013-03-08 16:31:00,
2013-03-08 11:36:00,40.9,24.6,29.97,West,281,17.0,22.0,52,0.00,,---,0.00,VWS V14.01,2013-03-08 16:36:00,
2013-03-08 11:41:00,41.1,24.4,29.96,SW,230,10.0,25.0,51,0.00,,---,0.00,VWS V14.01,2013-03-08 16:41:00,
2013-03-08 11:46:00,41.8,24.5,29.96,WSW,239,10.0,25.0,50,0.00,,---,0.00,VWS V14.01,2013-03-08 16:46:00,
2013-03-08 11:51:00,41.2,24.0,29.96,SW,222,10.0,25.0,50,0.00,,---,0.00,VWS V14.01,2013-03-08 16:51:00,
2013-03-08 11:56:00,41.3,24.5,29.97,West,262,15.0,25.0,51,0.00,,---,0.00,VWS V14.01,2013-03-08 16:56:00,
2013-03-08 12:00:00,41.7,24.5,29.97,West,261,5.0,25.0,50,0.00,,---,0.00,VWS V14.01,2013-03-08 17:00:00,
2013-03-08 12:01:00,41.6,24.4,29.97,WSW,254,12.0,25.0,50,0.00,,---,0.00,VWS V14.01,2013-03-08 17:01:00,
2013-03-08 12:06:00,41.7,24.5,29.96,WSW,251,3.0,11.0,50,0.00,,---,0.00,VWS V14.01,2013-03-08 17:06:00,
2013-03-08 12:11:00,41.5,24.3,29.96,WSW,248,6.0,20.0,50,0.00,,---,0.00,VWS V14.01,2013-03-08 17:11:00,
2013-03-08 12:16:00,41.6,24.4,29.96,West,275,17.0,26.0,50,0.00,,---,0.00,VWS V14.01,2013-03-08 17:16:00,
2013-03-08 12:21:00,41.7,24.0,29.96,West,270,9.0,26.0,49,0.00,,---,0.00,VWS V14.01,2013-03-08 17:21:00,
2013-03-08 12:26:00,41.9,24.1,29.96,WSW,241,17.0,26.0,49,0.00,,---,0.00,VWS V14.01,2013-03-08 17:26:00,
2013-03-08 12:30:00,42.4,23.6,29.96,West,259,8.0,26.0,47,0.00,,---,0.00,VWS V14.01,2013-03-08 17:30:00,
2013-03-08 12:31:00,42.3,24.5,29.96,SW,229,13.0,26.0,49,0.00,,---,0.00,VWS V14.01,2013-03-08 17:31:00,
2013-03-08 12:36:00,42.4,23.6,29.96,West,259,15.0,15.0,47,0.00,,---,0.00,VWS V14.01,2013-03-08 17:36:00,
2013-03-08 12:41:00,42.6,23.8,29.96,WNW,298,15.0,25.0,47,0.00,,---,0.00,VWS V14.01,2013-03-08 17:41:00,
2013-03-08 12:46:00,42.8,24.0,29.95,WSW,240,10.0,25.0,47,0.00,,---,0.00,VWS V14.01,2013-03-08 17:46:00,
2013-03-08 12:51:00,43.1,23.7,29.95,West,268,9.0,25.0,46,0.00,,---,0.00,VWS V14.01,2013-03-08 17:51:00,
2013-03-08 12:56:00,43.0,23.6,29.95,West,270,9.0,25.0,46,0.00,,---,0.00,VWS V14.01,2013-03-08 17:56:00,
2013-03-08 13:00:00,43.6,23.1,29.95,SW,219,8.0,25.0,44,0.00,,---,0.00,VWS V14.01,2013-03-08 18:00:00,
2013-03-08 13:01:00,43.2,23.8,29.95,WSW,252,6.0,25.0,46,0.00,,---,0.00,VWS V14.01,2013-03-08 18:01:00,
2013-03-08 13:06:00,43.7,23.2,29.95,WNW,292,5.0,18.0,44,0.00,,---,0.00,VWS V14.01,2013-03-08 18:06:00,
2013-03-08 13:11:00,43.9,23.4,29.95,WSW,257,18.0,18.0,44,0.00,,---,0.00,VWS V14.01,2013-03-08 18:11:00,
2013-03-08 13:16:00,43.9,23.4,29.95,West,268,11.0,20.0,44,0.00,,---,0.00,VWS V14.01,2013-03-08 18:16:00,
2013-03-08 13:21:00,44.0,23.0,29.95,WSW,254,12.0,22.0,43,0.00,,---,0.00,VWS V14.01,2013-03-08 18:21:00,
2013-03-08 13:26:00,44.6,22.4,29.95,SW,231,9.0,25.0,41,0.00,,---,0.00,VWS V14.01,2013-03-08 18:26:00,
2013-03-08 13:30:00,45.7,22.2,29.95,West,271,18.0,27.0,39,0.00,,---,0.00,VWS V14.01,2013-03-08 18:30:00,
2013-03-08 13:31:00,45.2,22.9,29.95,West,267,5.0,25.0,41,0.00,,---,0.00,VWS V14.01,2013-03-08 18:31:00,
2013-03-08 13:36:00,45.6,22.1,29.95,WSW,244,7.0,23.0,39,0.00,,---,0.00,VWS V14.01,2013-03-08 18:36:00,
2013-03-08 13:41:00,45.4,21.3,29.95,SW,235,19.0,25.0,38,0.00,,---,0.00,VWS V14.01,2013-03-08 18:41:00,
2013-03-08 13:46:00,45.6,21.5,29.95,WSW,248,12.0,25.0,38,0.00,,---,0.00,VWS V14.01,2013-03-08 18:46:00,
2013-03-08 13:51:00,45.5,20.8,29.95,WSW,244,9.0,25.0,37,0.00,,---,0.00,VWS V14.01,2013-03-08 18:51:00,
2013-03-08 13:56:00,45.7,21.6,29.95,WSW,256,9.0,25.0,38,0.00,,---,0.00,VWS V14.01,2013-03-08 18:56:00,
2013-03-08 14:00:00,46.7,20.5,29.95,West,261,11.0,25.0,35,0.00,,---,0.00,VWS V14.01,2013-03-08 19:00:00,
2013-03-08 14:01:00,46.2,21.4,29.95,West,279,7.0,25.0,37,0.00,,---,0.00,VWS V14.01,2013-03-08 19:01:00,
2013-03-08 14:06:00,47.0,20.8,29.95,WSW,252,13.0,14.0,35,0.00,,---,0.00,VWS V14.01,2013-03-08 19:06:00,
2013-03-08 14:11:00,47.7,20.7,29.95,WSW,242,16.0,16.0,34,0.00,,---,0.00,VWS V14.01,2013-03-08 19:11:00,
2013-03-08 14:16:00,48.2,21.2,29.95,West,261,10.0,18.0,34,0.00,,---,0.00,VWS V14.01,2013-03-08 19:16:00,
2013-03-08 14:21:00,48.3,21.2,29.94,WSW,244,9.0,23.0,34,0.00,,---,0.00,VWS V14.01,2013-03-08 19:21:00,
2013-03-08 14:26:00,48.2,21.2,29.92,SSW,211,14.0,23.0,34,0.00,,---,0.00,VWS V14.01,2013-03-08 19:26:00,
2013-03-08 14:30:00,47.9,19.5,29.93,WSW,257,12.0,24.0,32,0.00,,---,0.00,VWS V14.01,2013-03-08 19:30:00,
2013-03-08 14:31:00,48.4,20.6,29.93,SW,219,14.0,23.0,33,0.00,,---,0.00,VWS V14.01,2013-03-08 19:31:00,
2013-03-08 14:36:00,47.7,20.0,29.92,WNW,298,14.0,17.0,33,0.00,,---,0.00,VWS V14.01,2013-03-08 19:36:00,
2013-03-08 14:41:00,47.9,20.2,29.95,West,265,17.0,23.0,33,0.00,,---,0.00,VWS V14.01,2013-03-08 19:41:00,
2013-03-08 14:46:00,47.6,19.9,29.94,SSW,213,11.0,23.0,33,0.00,,---,0.00,VWS V14.01,2013-03-08 19:46:00,
2013-03-08 14:51:00,47.6,19.9,29.94,WNW,292,11.0,23.0,33,0.00,,---,0.00,VWS V14.01,2013-03-08 19:51:00,
2013-03-08 14:56:00,47.9,20.2,29.95,WSW,246,10.0,23.0,33,0.00,,---,0.00,VWS V14.01,2013-03-08 19:56:00,
2013-03-08 15:00:00,47.3,19.7,29.96,WSW,257,10.0,27.0,33,0.00,,---,0.00,VWS V14.01,2013-03-08 20:00:00,
2013-03-08 15:01:00,47.9,20.2,29.96,WSW,253,23.0,24.0,33,0.00,,---,0.00,VWS V14.01,2013-03-08 20:01:00,
2013-03-08 15:06:00,47.1,20.2,29.96,SW,217,13.0,21.0,34,0.00,,---,0.00,VWS V14.01,2013-03-08 20:06:00,
2013-03-08 15:11:00,46.8,19.9,29.97,WNW,286,19.0,21.0,34,0.00,,---,0.00,VWS V14.01,2013-03-08 20:11:00,
2013-03-08 15:16:00,47.1,20.9,29.97,West,268,11.0,22.0,35,0.00,,---,0.00,VWS V14.01,2013-03-08 20:16:00,
2013-03-08 15:21:00,46.7,20.5,29.97,WSW,250,16.0,27.0,35,0.00,,---,0.00,VWS V14.01,2013-03-08 20:21:00,
2013-03-08 15:26:00,46.3,20.2,29.97,West,273,12.0,27.0,35,0.00,,---,0.00,VWS V14.01,2013-03-08 20:26:00,
2013-03-08 15:30:00,45.8,19.7,29.97,WSW,257,6.0,27.0,35,0.00,,---,0.00,VWS V14.01,2013-03-08 20:30:00,
2013-03-08 15:31:00,46.0,20.6,29.97,WSW,240,14.0,27.0,36,0.00,,---,0.00,VWS V14.01,2013-03-08 20:31:00,
2013-03-08 15:36:00,45.8,19.7,29.97,West,270,11.0,17.0,35,0.00,,---,0.00,VWS V14.01,2013-03-08 20:36:00,
2013-03-08 15:41:00,45.7,19.6,29.98,West,262,10.0,24.0,35,0.00,,---,0.00,VWS V14.01,2013-03-08 20:41:00,
2013-03-08 15:46:00,45.6,20.2,29.98,WSW,244,9.0,24.0,36,0.00,,---,0.00,VWS V14.01,2013-03-08 20:46:00,
2013-03-08 15:51:00,45.4,20.0,29.98,West,266,7.0,24.0,36,0.00,,---,0.00,VWS V14.01,2013-03-08 20:51:00,
2013-03-08 15:56:00,45.8,20.4,29.98,West,269,14.0,24.0,36,0.00,,---,0.00,VWS V14.01,2013-03-08 20:56:00,
2013-03-08 16:00:00,45.6,19.5,29.98,WSW,244,8.0,24.0,35,0.00,,---,0.00,VWS V14.01,2013-03-08 21:00:00,
2013-03-08 16:01:00,45.6,19.5,29.98,WSW,248,10.0,24.0,35,0.00,,---,0.00,VWS V14.01,2013-03-08 21:01:00,
2013-03-08 16:06:00,45.6,18.9,29.99,West,259,10.0,17.0,34,0.00,,---,0.00,VWS V14.01,2013-03-08 21:06:00,
2013-03-08 16:11:00,45.5,19.5,29.99,WSW,252,14.0,17.0,35,0.00,,---,0.00,VWS V14.01,2013-03-08 21:11:00,
2013-03-08 16:16:00,45.5,20.1,29.99,WSW,246,5.0,17.0,36,0.00,,---,0.00,VWS V14.01,2013-03-08 21:16:00,
2013-03-08 16:21:00,45.4,20.0,29.99,West,260,10.0,18.0,36,0.00,,---,0.00,VWS V14.01,2013-03-08 21:21:00,
2013-03-08 16:26:00,45.4,20.0,29.99,WSW,240,11.0,18.0,36,0.00,,---,0.00,VWS V14.01,2013-03-08 21:26:00,
2013-03-08 16:30:00,45.5,19.5,30.00,WSW,250,13.0,21.0,35,0.00,,---,0.00,VWS V14.01,2013-03-08 21:30:00,
2013-03-08 16:31:00,45.6,19.5,30.00,West,261,12.0,18.0,35,0.00,,---,0.00,VWS V14.01,2013-03-08 21:31:00,
2013-03-08 16:36:00,45.5,19.5,30.00,WSW,251,11.0,22.0,35,0.00,,---,0.00,VWS V14.01,2013-03-08 21:36:00,
2013-03-08 16:41:00,45.2,19.9,30.00,West,267,6.0,22.0,36,0.00,,---,0.00,VWS V14.01,2013-03-08 21:41:00,
2013-03-08 16:46:00,44.9,19.6,30.00,SW,228,6.0,22.0,36,0.00,,---,0.00,VWS V14.01,2013-03-08 21:46:00,
2013-03-08 16:51:00,44.5,19.2,30.00,West,265,17.0,25.0,36,0.00,,---,0.00,VWS V14.01,2013-03-08 21:51:00,
2013-03-08 16:56:00,44.2,19.6,30.00,West,273,8.0,25.0,37,0.00,,---,0.00,VWS V14.01,2013-03-08 21:56:00,
2013-03-08 17:00:00,43.5,19.6,30.01,West,261,4.0,25.0,38,0.00,,---,0.00,VWS V14.01,2013-03-08 22:00:00,
2013-03-08 17:01:00,43.8,19.2,30.01,NW,309,7.0,25.0,37,0.00,,---,0.00,VWS V14.01,2013-03-08 22:01:00,
2013-03-08 17:06:00,43.4,19.5,30.01,WSW,250,17.0,18.0,38,0.00,,---,0.00,VWS V14.01,2013-03-08 22:06:00,
2013-03-08 17:11:00,43.3,20.0,30.01,West,274,8.0,22.0,39,0.00,,---,0.00,VWS V14.01,2013-03-08 22:11:00,
2013-03-08 17:16:00,43.1,19.8,30.02,West,265,11.0,22.0,39,0.00,,---,0.00,VWS V14.01,2013-03-08 22:16:00,
2013-03-08 17:21:00,43.0,19.8,30.02,WSW,245,10.0,22.0,39,0.00,,---,0.00,VWS V14.01,2013-03-08 22:21:00,
2013-03-08 17:26:00,42.7,20.1,30.02,WSW,258,4.0,22.0,40,0.00,,---,0.00,VWS V14.01,2013-03-08 22:26:00,
2013-03-08 17:30:00,42.4,19.8,30.02,WNW,288,10.0,22.0,40,0.00,,---,0.00,VWS V14.01,2013-03-08 22:30:00,
2013-03-08 17:31:00,42.4,19.8,30.02,West,259,16.0,22.0,40,0.00,,---,0.00,VWS V14.01,2013-03-08 22:31:00,
2013-03-08 17:36:00,42.3,19.7,30.02,West,269,11.0,14.0,40,0.00,,---,0.00,VWS V14.01,2013-03-08 22:36:00,
2013-03-08 17:41:00,42.2,19.6,30.02,West,267,16.0,21.0,40,0.00,,---,0.00,VWS V14.01,2013-03-08 22:41:00,
2013-03-08 17:46:00,42.0,20.0,30.03,West,262,7.0,21.0,41,0.00,,---,0.00,VWS V14.01,2013-03-08 22:46:00,
2013-03-08 17:51:00,41.8,19.8,30.03,WNW,290,7.0,21.0,41,0.00,,---,0.00,VWS V14.01,2013-03-08 22:51:00,
2013-03-08 17:56:00,41.9,19.9,30.03,WSW,245,4.0,26.0,41,0.00,,---,0.00,VWS V14.01,2013-03-08 22:56:00,
2013-03-08 18:00:00,41.6,19.7,30.04,WSW,247,12.0,26.0,41,0.00,,---,0.00,VWS V14.01,2013-03-08 23:00:00,
2013-03-08 18:01:00,41.7,19.8,30.03,West,263,14.0,26.0,41,0.00,,---,0.00,VWS V14.01,2013-03-08 23:01:00,
2013-03-08 18:06:00,41.5,20.1,30.04,WNW,284,12.0,14.0,42,0.00,,---,0.00,VWS V14.01,2013-03-08 23:06:00,
2013-03-08 18:11:00,41.5,20.1,30.04,West,272,12.0,22.0,42,0.00,,---,0.00,VWS V14.01,2013-03-08 23:11:00,
2013-03-08 18:16:00,41.3,20.0,30.04,WSW,254,15.0,22.0,42,0.00,,---,0.00,VWS V14.01,2013-03-08 23:16:00,
2013-03-08 18:21:00,41.2,19.9,30.04,WSW,257,14.0,22.0,42,0.00,,---,0.00,VWS V14.01,2013-03-08 23:21:00,
2013-03-08 18:26:00,41.0,20.2,30.04,WSW,241,8.0,23.0,43,0.00,,---,0.00,VWS V14.01,2013-03-08 23:26:00,
2013-03-08 18:30:00,40.7,20.0,30.05,West,275,13.0,23.0,43,0.00,,---,0.00,VWS V14.01,2013-03-08 23:30:00,
2013-03-08 18:31:00,40.9,19.6,30.05,WSW,245,17.0,23.0,42,0.00,,---,0.00,VWS V14.01,2013-03-08 23:31:00,
2013-03-08 18:36:00,40.7,20.0,30.05,WSW,250,10.0,18.0,43,0.00,,---,0.00,VWS V14.01,2013-03-08 23:36:00,
2013-03-08 18:41:00,40.5,19.8,30.05,WNW,294,13.0,21.0,43,0.00,,---,0.00,VWS V14.01,2013-03-08 23:41:00,
2013-03-08 18:46:00,40.4,19.7,30.05,West,259,9.0,21.0,43,0.00,,---,0.00,VWS V14.01,2013-03-08 23:46:00,
2013-03-08 18:51:00,40.3,20.1,30.05,WNW,293,10.0,21.0,44,0.00,,---,0.00,VWS V14.01,2013-03-08 23:51:00,
2013-03-08 18:56:00,40.2,19.5,30.05,WNW,288,8.0,26.0,43,0.00,,---,0.00,VWS V14.01,2013-03-08 23:56:00,
2013-03-08 19:00:00,40.1,19.4,30.06,SW,231,14.0,29.0,43,0.00,,---,0.00,VWS V14.01,2013-03-09 00:00:00,
2013-03-08 19:01:00,40.1,19.4,30.06,West,272,13.0,29.0,43,0.00,,---,0.00,VWS V14.01,2013-03-09 00:01:00,
2013-03-08 19:06:00,40.0,19.3,30.05,WSW,245,16.0,30.0,43,0.00,,---,0.00,VWS V14.01,2013-03-09 00:06:00,
2013-03-08 19:11:00,39.9,19.2,30.06,WSW,246,16.0,30.0,43,0.00,,---,0.00,VWS V14.01,2013-03-09 00:11:00,
2013-03-08 19:16:00,39.8,19.7,30.06,West,261,15.0,30.0,44,0.00,,---,0.00,VWS V14.01,2013-03-09 00:16:00,
2013-03-08 19:21:00,39.7,19.6,30.06,NW,306,14.0,30.0,44,0.00,,---,0.00,VWS V14.01,2013-03-09 00:21:00,
2013-03-08 19:26:00,39.5,19.9,30.06,West,269,20.0,30.0,45,0.00,,---,0.00,VWS V14.01,2013-03-09 00:26:00,
2013-03-08 19:30:00,39.3,20.3,30.06,West,281,6.0,30.0,46,0.00,,---,0.00,VWS V14.01,2013-03-09 00:30:00,
2013-03-08 19:31:00,39.4,19.8,30.06,West,265,3.0,30.0,45,0.00,,---,0.00,VWS V14.01,2013-03-09 00:31:00,
2013-03-08 19:36:00,39.3,20.3,30.06,SW,215,8.0,17.0,46,0.00,,---,0.00,VWS V14.01,2013-03-09 00:36:00,
2013-03-08 19:41:00,39.3,20.3,30.07,West,262,12.0,25.0,46,0.00,,---,0.00,VWS V14.01,2013-03-09 00:41:00,
2013-03-08 19:46:00,39.2,20.2,30.07,WSW,244,14.0,25.0,46,0.00,,---,0.00,VWS V14.01,2013-03-09 00:46:00,
2013-03-08 19:51:00,39.1,20.1,30.07,WNW,290,9.0,25.0,46,0.00,,---,0.00,VWS V14.01,2013-03-09 00:51:00,
2013-03-08 19:56:00,39.2,20.2,30.07,West,269,12.0,25.0,46,0.00,,---,0.00,VWS V14.01,2013-03-09 00:56:00,
2013-03-08 20:00:00,38.9,20.4,30.07,WSW,249,10.0,25.0,47,0.00,,---,0.00,VWS V14.01,2013-03-09 01:00:00,
2013-03-08 20:01:00,39.0,20.5,30.07,West,267,13.0,25.0,47,0.00,,---,0.00,VWS V14.01,2013-03-09 01:01:00,
2013-03-08 20:06:00,38.9,20.4,30.08,West,273,14.0,17.0,47,0.00,,---,0.00,VWS V14.01,2013-03-09 01:06:00,
2013-03-08 20:11:00,38.8,20.8,30.08,SSW,212,5.0,17.0,48,0.00,,---,0.00,VWS V14.01,2013-03-09 01:11:00,
2013-03-08 20:16:00,38.6,20.6,30.08,WSW,245,4.0,17.0,48,0.00,,---,0.00,VWS V14.01,2013-03-09 01:16:00,
2013-03-08 20:21:00,38.6,20.6,30.08,WNW,296,21.0,23.0,48,0.00,,---,0.00,VWS V14.01,2013-03-09 01:21:00,
2013-03-08 20:26:00,38.6,21.1,30.08,WNW,290,7.0,23.0,49,0.00,,---,0.00,VWS V14.01,2013-03-09 01:26:00,
2013-03-08 20:30:00,38.3,21.3,30.08,WSW,252,9.0,23.0,50,0.00,,---,0.00,VWS V14.01,2013-03-09 01:30:00,
2013-03-08 20:31:00,38.5,21.0,30.08,West,277,12.0,23.0,49,0.00,,---,0.00,VWS V14.01,2013-03-09 01:31:00,
2013-03-08 20:36:00,38.3,21.3,30.08,West,262,4.0,10.0,50,0.00,,---,0.00,VWS V14.01,2013-03-09 01:36:00,
2013-03-08 20:41:00,38.1,21.1,30.08,West,276,5.0,15.0,50,0.00,,---,0.00,VWS V14.01,2013-03-09 01:41:00,
2013-03-08 20:46:00,38.0,21.5,30.08,WNW,285,5.0,18.0,51,0.00,,---,0.00,VWS V14.01,2013-03-09 01:46:00,
2013-03-08 20:51:00,37.9,21.4,30.08,WSW,257,13.0,18.0,51,0.00,,---,0.00,VWS V14.01,2013-03-09 01:51:00,
2013-03-08 20:56:00,37.8,21.3,30.08,WSW,251,4.0,18.0,51,0.00,,---,0.00,VWS V14.01,2013-03-09 01:56:00,
2013-03-08 21:00:00,37.5,21.9,30.08,WSW,251,10.0,19.0,53,0.00,,---,0.00,VWS V14.01,2013-03-09 02:00:00,
2013-03-08 21:01:00,37.6,21.6,30.08,WSW,243,9.0,19.0,52,0.00,,---,0.00,VWS V14.01,2013-03-09 02:01:00,
2013-03-08 21:06:00,37.5,21.9,30.08,West,260,13.0,14.0,53,0.00,,---,0.00,VWS V14.01,2013-03-09 02:06:00,
2013-03-08 21:11:00,37.4,21.9,30.08,SSW,212,7.0,22.0,53,0.00,,---,0.00,VWS V14.01,2013-03-09 02:11:00,
2013-03-08 21:16:00,37.3,21.8,30.08,West,259,13.0,22.0,53,0.00,,---,0.00,VWS V14.01,2013-03-09 02:16:00,
2013-03-08 21:21:00,37.1,22.0,30.08,WNW,289,6.0,22.0,54,0.00,,---,0.00,VWS V14.01,2013-03-09 02:21:00,
2013-03-08 21:26:00,37.0,21.9,30.08,WNW,284,9.0,22.0,54,0.00,,---,0.00,VWS V14.01,2013-03-09 02:26:00,
2013-03-08 21:30:00,36.8,21.7,30.09,West,259,8.0,22.0,54,0.00,,---,0.00,VWS V14.01,2013-03-09 02:30:00,
2013-03-08 21:31:00,36.9,21.8,30.08,WSW,248,9.0,22.0,54,0.00,,---,0.00,VWS V14.01,2013-03-09 02:31:00,
2013-03-08 21:36:00,36.7,22.1,30.09,West,268,5.0,14.0,55,0.00,,---,0.00,VWS V14.01,2013-03-09 02:36:00,
2013-03-08 21:41:00,36.6,22.0,30.09,West,276,7.0,19.0,55,0.00,,---,0.00,VWS V14.01,2013-03-09 02:41:00,
2013-03-08 21:46:00,36.5,21.9,30.09,WSW,257,10.0,19.0,55,0.00,,---,0.00,VWS V14.01,2013-03-09 02:46:00,
2013-03-08 21:51:00,36.4,22.2,30.09,West,264,8.0,19.0,56,0.00,,---,0.00,VWS V14.01,2013-03-09 02:51:00,
2013-03-08 21:56:00,36.3,22.5,30.09,WSW,247,10.0,19.0,57,0.00,,---,0.00,VWS V14.01,2013-03-09 02:56:00,
2013-03-08 22:00:00,35.9,23.0,30.09,WSW,257,5.0,19.0,59,0.00,,---,0.00,VWS V14.01,2013-03-09 03:00:00,
2013-03-08 22:01:00,36.1,22.8,30.09,WSW,257,5.0,19.0,58,0.00,,---,0.00,VWS V14.01,2013-03-09 03:01:00,
2013-03-08 22:06:00,35.8,22.9,30.09,West,268,5.0,14.0,59,0.00,,---,0.00,VWS V14.01,2013-03-09 03:06:00,
2013-03-08 22:11:00,35.8,22.9,30.09,WSW,240,8.0,18.0,59,0.00,,---,0.00,VWS V14.01,2013-03-09 03:11:00,
2013-03-08 22:16:00,35.6,23.1,30.09,WSW,256,12.0,18.0,60,0.00,,---,0.00,VWS V14.01,2013-03-09 03:16:00,
2013-03-08 22:21:00,35.6,23.1,30.09,SW,223,8.0,19.0,60,0.00,,---,0.00,VWS V14.01,2013-03-09 03:21:00,
2013-03-08 22:26:00,35.5,23.0,30.09,SW,232,7.0,19.0,60,0.00,,---,0.00,VWS V14.01,2013-03-09 03:26:00,
2013-03-08 22:30:00,35.3,23.2,30.09,West,265,10.0,19.0,61,0.00,,---,0.00,VWS V14.01,2013-03-09 03:30:00,
2013-03-08 22:31:00,35.4,23.3,30.09,West,260,8.0,19.0,61,0.00,,---,0.00,VWS V14.01,2013-03-09 03:31:00,
2013-03-08 22:36:00,35.3,23.2,30.09,WSW,255,12.0,16.0,61,0.00,,---,0.00,VWS V14.01,2013-03-09 03:36:00,
2013-03-08 22:41:00,35.2,23.1,30.09,SW,227,11.0,17.0,61,0.00,,---,0.00,VWS V14.01,2013-03-09 03:41:00,
2013-03-08 22:46:00,35.2,23.5,30.09,SW,236,5.0,17.0,62,0.00,,---,0.00,VWS V14.01,2013-03-09 03:46:00,
2013-03-08 22:51:00,35.0,23.3,30.09,SW,233,16.0,18.0,62,0.00,,---,0.00,VWS V14.01,2013-03-09 03:51:00,
2013-03-08 22:56:00,34.9,23.2,30.09,WSW,248,10.0,18.0,62,0.00,,---,0.00,VWS V14.01,2013-03-09 03:56:00,
2013-03-08 23:00:00,34.6,23.3,30.09,WSW,237,10.0,18.0,63,0.00,,---,0.00,VWS V14.01,2013-03-09 04:00:00,
2013-03-08 23:01:00,34.7,23.4,30.09,SW,214,7.0,18.0,63,0.00,,---,0.00,VWS V14.01,2013-03-09 04:01:00,
2013-03-08 23:06:00,34.6,23.3,30.10,West,281,11.0,14.0,63,0.00,,---,0.00,VWS V14.01,2013-03-09 04:06:00,
2013-03-08 23:11:00,34.4,23.5,30.10,WSW,244,4.0,14.0,64,0.00,,---,0.00,VWS V14.01,2013-03-09 04:11:00,
2013-03-08 23:16:00,34.2,23.3,30.10,SW,228,6.0,14.0,64,0.00,,---,0.00,VWS V14.01,2013-03-09 04:16:00,
2013-03-08 23:21:00,34.0,23.5,30.10,WSW,250,6.0,14.0,65,0.00,,---,0.00,VWS V14.01,2013-03-09 04:21:00,
2013-03-08 23:26:00,33.9,23.4,30.09,WSW,240,10.0,14.0,65,0.00,,---,0.00,VWS V14.01,2013-03-09 04:26:00,
2013-03-08 23:30:00,33.6,23.5,30.10,WSW,240,4.0,14.0,66,0.00,,---,0.00,VWS V14.01,2013-03-09 04:30:00,
2013-03-08 23:31:00,33.7,23.2,30.10,SSW,204,7.0,14.0,65,0.00,,---,0.00,VWS V14.01,2013-03-09 04:31:00,
2013-03-08 23:36:00,33.6,23.5,30.10,WSW,252,3.0,10.0,66,0.00,,---,0.00,VWS V14.01,2013-03-09 04:36:00,
2013-03-08 23:41:00,33.4,23.3,30.10,WNW,288,6.0,13.0,66,0.00,,---,0.00,VWS V14.01,2013-03-09 04:41:00,
2013-03-08 23:46:00,33.3,23.2,30.10,West,275,8.0,13.0,66,0.00,,---,0.00,VWS V14.01,2013-03-09 04:46:00,
2013-03-08 23:51:00,33.1,23.4,30.10,WSW,244,4.0,13.0,67,0.00,,---,0.00,VWS V14.01,2013-03-09 04:51:00,
2013-03-08 23:56:00,33.0,23.2,30.10,West,272,5.0,13.0,67,0.00,,---,0.00,VWS V14.01,2013-03-09 04:56:00,